Vineland (AU8), Ontario

8:22 AM EDT on July 23, 2017 (GMT -0400)
Vineland (AU8)

Weather History for CXVN - October, 2011

Change the Weather History Date:

Thursday, October 6, 2011

  Actual Average (CYSN) Record (CYSN)
Temperature  
Mean Temperature 50 °F -  
Max Temperature 62 °F 61 °F 80 °F (2005)
Min Temperature 39 °F 46 °F 33 °F (2003)
Degree Days  
Heating Degree Days 14    
Moisture  
Dew Point 43 °F    
Average Humidity 73    
Maximum Humidity 97    
Minimum Humidity 43    
Precipitation  
Precipitation 0.01 in - - ()
Sea Level Pressure  
Sea Level Pressure 30.33 in    
Wind  
Wind Speed 3 mph ()    
Max Wind Speed 7 mph    
Max Gust Speed -    
Averages and records for this station are not official NWS values.
T = Trace of Precipitation, MM = Missing Value Source: Averaged Metar Reports

Daily Weather History Graph

Daily Weather History Graph

Search for Another Location

Airport or City:

Trip Planner

Search our weather history database for the weather conditions in past years. The results will help you decide how hot, cold, wet, or windy it might be!

Date:

Astronomy

Oct. 06, 2011 Rise Set
Actual Time 7:20 AM EDT 6:50 PM EDT
Civil Twilight 6:51 AM EDT 7:18 PM EDT
Nautical Twilight 6:18 AM EDT 7:51 PM EDT
Astronomical Twilight 5:45 AM EDT 8:24 PM EDT
Moon 4:09 PM EDT (10/6) 1:59 AM EDT (10/6)
Length of Visible Light 12h 26m
Length of Day
11h 30m
Waxing Gibbous, 75% of the Moon is Illuminated
Oct 6
Waxing Gibbous
Oct 11
Full
Oct 19
Last Quarter
Oct 26
New
Nov 2
First Quarter

Hourly Weather History & Observations

Time (EDT) Temp. Windchill Dew Point Humidity Pressure Visibility Wind Dir Wind Speed Gust Speed Precip Events Conditions
12:00 AM 43.7 °F - 40.1 °F 87% 30.31 in - South 1.2 mph - N/A   Unknown
1:00 AM 43.7 °F - 39.2 °F 84% 30.32 in - WSW 2.3 mph - N/A   Unknown
2:00 AM 42 °F - 39 °F 83% 30.33 in - SSW 2.3 mph - -  
2:00 AM 41.7 °F - 38.7 °F 89% 30.33 in - SSW 2.3 mph - N/A   Unknown
3:00 AM 43.3 °F 40.7 °F 39.0 °F 85% 30.33 in - South 4.6 mph - N/A   Unknown
4:00 AM 42.4 °F 40.7 °F 37.9 °F 84% 30.33 in - South 3.5 mph - N/A   Unknown
5:00 AM 41.0 °F - 38.3 °F 90% 30.35 in - SSE 2.3 mph - N/A   Unknown
6:00 AM 39.0 °F - 37.8 °F 95% 30.35 in - South 1.2 mph - N/A   Unknown
7:00 AM 39.6 °F - 38.3 °F 95% 30.35 in - SSE 2.3 mph - N/A   Unknown
8:00 AM 40.6 °F - 39.7 °F 97% 30.37 in - SSE 2.3 mph - N/A   Unknown
9:00 AM 50.9 °F - 43.7 °F 76% 30.38 in - SSE 2.3 mph - 0.01 in   Unknown
10:00 AM 56.8 °F - 43.7 °F 61% 30.38 in - South 2.3 mph - N/A   Unknown
12:00 PM 59.7 °F - 46.0 °F 61% 30.37 in - NE 6.9 mph - N/A   Unknown
1:00 PM 60.4 °F - 44.2 °F 55% 30.35 in - NE 6.9 mph - N/A   Unknown
2:00 PM 61 °F - 44 °F 43% 30.33 in - NE 5.8 mph - -  
2:00 PM 61.0 °F - 44.2 °F 54% 30.33 in - NE 5.8 mph - N/A   Unknown
3:00 PM 61.2 °F - 44.2 °F 54% 30.32 in - NE 6.9 mph - N/A   Unknown
4:00 PM 61.5 °F - 43.7 °F 52% 30.31 in - ENE 4.6 mph - N/A   Unknown
5:00 PM 60.6 °F - 44.4 °F 55% 30.31 in - East 4.6 mph - N/A   Unknown
6:00 PM 59.4 °F - 43.7 °F 56% 30.30 in - ESE 3.5 mph - N/A   Unknown
7:00 PM 57.2 °F - 45.9 °F 66% 30.31 in - ESE 3.5 mph - N/A   Unknown
8:00 PM 53 °F - 47 °F 74% 30.31 in - South 3.5 mph - -  
8:00 PM 53.2 °F - 47.1 °F 80% 30.31 in - South 3.5 mph - N/A   Unknown
9:00 PM 52.3 °F - 46.4 °F 80% 30.31 in - SSE 3.5 mph - N/A   Unknown
10:00 PM 53.1 °F - 45.5 °F 75% 30.32 in - South 3.5 mph - N/A   Unknown
11:00 PM 52.3 °F - 44.2 °F 74% 30.32 in - SSW 4.6 mph - N/A   Unknown